Date_Time,Julian_Date,Latitude,Longitude,Instrument_Depth,U,V,Speed,Direction
(yyyy-mm-dd hh:mn:ss UTC),(JD),(+ deg. North),(+ deg. East),(m),(cm/s),(cm/s),(cm/s),(deg True)
1978-06-17 23:59:00 UTC,2443677.499306,29.1983,-87.6383,0168,-1.47,-0.11,1.4741,265.7206
1978-06-18 00:59:00 UTC,2443677.540972,29.1983,-87.6383,0168,-1.66,-0.11,1.6636,266.2088
1978-06-18 01:59:00 UTC,2443677.582639,29.1983,-87.6383,0168,-1.82,-0.09,1.8222,267.1690
1978-06-18 02:59:00 UTC,2443677.624306,29.1983,-87.6383,0168,-1.68,-0.01,1.6800,269.6590
1978-06-18 03:59:00 UTC,2443677.665972,29.1983,-87.6383,0168,-1.47,-0.09,1.4728,266.4965
1978-06-18 04:59:00 UTC,2443677.707639,29.1983,-87.6383,0168,-1.37,-0.13,1.3762,264.5794
1978-06-18 05:59:00 UTC,2443677.749306,29.1983,-87.6383,0168,-1.20,-0.05,1.2010,267.6141
1978-06-18 06:59:00 UTC,2443677.790972,29.1983,-87.6383,0168,-0.88,-0.02,0.8802,268.6981
1978-06-18 07:59:00 UTC,2443677.832639,29.1983,-87.6383,0168,-0.73,-0.06,0.7325,265.3013
1978-06-18 08:59:00 UTC,2443677.874306,29.1983,-87.6383,0168,-0.61,-0.14,0.6259,257.0740
1978-06-18 09:59:00 UTC,2443677.915972,29.1983,-87.6383,0168,-0.44,-0.19,0.4793,246.6444
1978-06-18 10:59:00 UTC,2443677.957639,29.1983,-87.6383,0168,-0.37,-0.23,0.4357,238.1340
1978-06-18 11:59:00 UTC,2443677.999306,29.1983,-87.6383,0168,-0.40,-0.29,0.4941,234.0579
1978-06-18 12:59:00 UTC,2443678.040972,29.1983,-87.6383,0168,-0.50,-0.48,0.6931,226.1691
1978-06-18 13:59:00 UTC,2443678.082639,29.1983,-87.6383,0168,-0.66,-0.52,0.8402,231.7662
1978-06-18 14:59:00 UTC,2443678.124306,29.1983,-87.6383,0168,-0.79,-0.49,0.9296,238.1906
1978-06-18 15:59:00 UTC,2443678.165972,29.1983,-87.6383,0168,-0.70,-0.58,0.9091,230.3558
1978-06-18 16:59:00 UTC,2443678.207639,29.1983,-87.6383,0168,-0.70,-0.68,0.9759,225.8303
1978-06-18 17:59:00 UTC,2443678.249306,29.1983,-87.6383,0168,-0.86,-0.76,1.1477,228.5323
1978-06-18 18:59:00 UTC,2443678.290972,29.1983,-87.6383,0168,-0.84,-0.55,1.0040,236.7848
1978-06-18 19:59:00 UTC,2443678.332639,29.1983,-87.6383,0168,-0.73,-0.37,0.8184,243.1219
1978-06-18 20:59:00 UTC,2443678.374306,29.1983,-87.6383,0168,-0.73,-0.28,0.7819,249.0151
1978-06-18 21:59:00 UTC,2443678.415972,29.1983,-87.6383,0168,-0.62,-0.10,0.6280,260.8376
1978-06-18 22:59:00 UTC,2443678.457639,29.1983,-87.6383,0168,-0.46,0.02,0.4604,272.4896
1978-06-18 23:59:00 UTC,2443678.499306,29.1983,-87.6383,0168,-0.41,0.08,0.4177,281.0410
1978-06-19 00:59:00 UTC,2443678.540972,29.1983,-87.6383,0168,-0.30,0.12,0.3231,291.8014
1978-06-19 01:59:00 UTC,2443678.582639,29.1983,-87.6383,0168,-0.20,0.10,0.2236,296.5651
1978-06-19 02:59:00 UTC,2443678.624306,29.1983,-87.6383,0168,-0.24,0.10,0.2600,292.6199
1978-06-19 03:59:00 UTC,2443678.665972,29.1983,-87.6383,0168,-0.18,0.07,0.1931,291.2505
1978-06-19 04:59:00 UTC,2443678.707639,29.1983,-87.6383,0168,-0.13,0.13,0.1838,315.0000
1978-06-19 05:59:00 UTC,2443678.749306,29.1983,-87.6383,0168,-0.18,0.14,0.2280,307.8750
1978-06-19 06:59:00 UTC,2443678.790972,29.1983,-87.6383,0168,-0.15,0.06,0.1616,291.8014
1978-06-19 07:59:00 UTC,2443678.832639,29.1983,-87.6383,0168,-0.13,0.07,0.1476,298.3008
1978-06-19 08:59:00 UTC,2443678.874306,29.1983,-87.6383,0168,-0.14,0.06,0.1523,293.1986
1978-06-19 09:59:00 UTC,2443678.915972,29.1983,-87.6383,0168,-0.13,0.07,0.1476,298.3008
1978-06-19 10:59:00 UTC,2443678.957639,29.1983,-87.6383,0168,-0.11,0.11,0.1556,315.0000
1978-06-19 11:59:00 UTC,2443678.999306,29.1983,-87.6383,0168,-0.11,0.11,0.1556,315.0000
1978-06-19 12:59:00 UTC,2443679.040972,29.1983,-87.6383,0168,-0.12,0.09,0.1500,306.8699
1978-06-19 13:59:00 UTC,2443679.082639,29.1983,-87.6383,0168,-0.16,0.02,0.1612,277.1250
1978-06-19 14:59:00 UTC,2443679.124306,29.1983,-87.6383,0168,-0.14,-0.02,0.1414,261.8699
1978-06-19 15:59:00 UTC,2443679.165972,29.1983,-87.6383,0168,-0.27,-0.06,0.2766,257.4712
1978-06-19 16:59:00 UTC,2443679.207639,29.1983,-87.6383,0168,-0.50,-0.10,0.5099,258.6901
1978-06-19 17:59:00 UTC,2443679.249306,29.1983,-87.6383,0168,-0.53,-0.12,0.5434,257.2425
1978-06-19 18:59:00 UTC,2443679.290972,29.1983,-87.6383,0168,-0.59,-0.26,0.6447,246.2180
1978-06-19 19:59:00 UTC,2443679.332639,29.1983,-87.6383,0168,-0.81,-0.34,0.8785,247.2296
1978-06-19 20:59:00 UTC,2443679.374306,29.1983,-87.6383,0168,-0.97,-0.19,0.9884,258.9174
1978-06-19 21:59:00 UTC,2443679.415972,29.1983,-87.6383,0168,-0.85,0.10,0.8559,276.7098
1978-06-19 22:59:00 UTC,2443679.457639,29.1983,-87.6383,0168,-0.77,0.20,0.7956,284.5603
1978-06-19 23:59:00 UTC,2443679.499306,29.1983,-87.6383,0168,-0.75,0.18,0.7713,283.4957
1978-06-20 00:59:00 UTC,2443679.540972,29.1983,-87.6383,0168,-0.55,0.25,0.6042,294.4440
1978-06-20 01:59:00 UTC,2443679.582639,29.1983,-87.6383,0168,-0.25,0.19,0.3140,307.2348
1978-06-20 02:59:00 UTC,2443679.624306,29.1983,-87.6383,0168,-0.16,0.08,0.1789,296.5651
1978-06-20 03:59:00 UTC,2443679.665972,29.1983,-87.6383,0168,-0.31,0.03,0.3114,275.5275
1978-06-20 04:59:00 UTC,2443679.707639,29.1983,-87.6383,0168,-0.29,0.04,0.2927,277.8533
1978-06-20 05:59:00 UTC,2443679.749306,29.1983,-87.6383,0168,-0.25,0.04,0.2532,279.0903
1978-06-20 06:59:00 UTC,2443679.790972,29.1983,-87.6383,0168,-0.55,0.03,0.5508,273.1221
1978-06-20 07:59:00 UTC,2443679.832639,29.1983,-87.6383,0168,-0.65,0.12,0.6610,280.4599
1978-06-20 08:59:00 UTC,2443679.874306,29.1983,-87.6383,0168,-0.35,0.14,0.3770,291.8014
1978-06-20 09:59:00 UTC,2443679.915972,29.1983,-87.6383,0168,-0.25,-0.01,0.2502,267.7094
1978-06-20 10:59:00 UTC,2443679.957639,29.1983,-87.6383,0168,-0.42,-0.15,0.4460,250.3462
1978-06-20 11:59:00 UTC,2443679.999306,29.1983,-87.6383,0168,-0.58,-0.24,0.6277,247.5206
1978-06-20 12:59:00 UTC,2443680.040972,29.1983,-87.6383,0168,-0.70,-0.26,0.7467,249.6236
1978-06-20 13:59:00 UTC,2443680.082639,29.1983,-87.6383,0168,-0.84,-0.16,0.8551,259.2157
1978-06-20 14:59:00 UTC,2443680.124306,29.1983,-87.6383,0168,-0.83,-0.01,0.8301,269.3097
1978-06-20 15:59:00 UTC,2443680.165972,29.1983,-87.6383,0168,-0.71,0.21,0.7404,286.4769
1978-06-20 16:59:00 UTC,2443680.207639,29.1983,-87.6383,0168,-0.54,0.20,0.5758,290.3232
1978-06-20 17:59:00 UTC,2443680.249306,29.1983,-87.6383,0168,-0.48,0.06,0.4837,277.1250
1978-06-20 18:59:00 UTC,2443680.290972,29.1983,-87.6383,0168,-0.56,0.02,0.5604,272.0454
1978-06-20 19:59:00 UTC,2443680.332639,29.1983,-87.6383,0168,-0.45,0.02,0.4504,272.5448
1978-06-20 20:59:00 UTC,2443680.374306,29.1983,-87.6383,0168,-0.29,0.06,0.2961,281.6894
1978-06-20 21:59:00 UTC,2443680.415972,29.1983,-87.6383,0168,-0.51,0.03,0.5109,273.3665
1978-06-20 22:59:00 UTC,2443680.457639,29.1983,-87.6383,0168,-0.71,0.01,0.7101,270.8069
1978-06-20 23:59:00 UTC,2443680.499306,29.1983,-87.6383,0168,-0.42,0.12,0.4368,285.9454
1978-06-21 00:59:00 UTC,2443680.540972,29.1983,-87.6383,0168,-0.31,0.06,0.3158,280.9541
1978-06-21 01:59:00 UTC,2443680.582639,29.1983,-87.6383,0168,-0.68,-0.12,0.6905,259.9920
1978-06-21 02:59:00 UTC,2443680.624306,29.1983,-87.6383,0168,-0.96,-0.15,0.9716,261.1194
1978-06-21 03:59:00 UTC,2443680.665972,29.1983,-87.6383,0168,-0.86,-0.02,0.8602,268.6678
1978-06-21 04:59:00 UTC,2443680.707639,29.1983,-87.6383,0168,-0.83,0.01,0.8301,270.6903
1978-06-21 05:59:00 UTC,2443680.749306,29.1983,-87.6383,0168,-0.96,-0.01,0.9601,269.4032
1978-06-21 06:59:00 UTC,2443680.790972,29.1983,-87.6383,0168,-1.01,-0.01,1.0100,269.4327
1978-06-21 07:59:00 UTC,2443680.832639,29.1983,-87.6383,0168,-0.99,-0.01,0.9901,269.4213
1978-06-21 08:59:00 UTC,2443680.874306,29.1983,-87.6383,0168,-1.01,-0.00,1.0100,270.0000
1978-06-21 09:59:00 UTC,2443680.915972,29.1983,-87.6383,0168,-0.98,0.05,0.9813,272.9207
1978-06-21 10:59:00 UTC,2443680.957639,29.1983,-87.6383,0168,-0.77,0.08,0.7741,275.9315
1978-06-21 11:59:00 UTC,2443680.999306,29.1983,-87.6383,0168,-0.69,-0.00,0.6900,270.0000
1978-06-21 12:59:00 UTC,2443681.040972,29.1983,-87.6383,0168,-0.87,-0.09,0.8746,264.0939
1978-06-21 13:59:00 UTC,2443681.082639,29.1983,-87.6383,0168,-0.96,-0.22,0.9849,257.0926
1978-06-21 14:59:00 UTC,2443681.124306,29.1983,-87.6383,0168,-0.90,-0.35,0.9657,248.7495
1978-06-21 15:59:00 UTC,2443681.165972,29.1983,-87.6383,0168,-0.95,-0.32,1.0024,251.3843
1978-06-21 16:59:00 UTC,2443681.207639,29.1983,-87.6383,0168,-1.06,-0.38,1.1261,250.2777
1978-06-21 17:59:00 UTC,2443681.249306,29.1983,-87.6383,0168,-1.10,-0.44,1.1847,248.1986
1978-06-21 18:59:00 UTC,2443681.290972,29.1983,-87.6383,0168,-1.12,-0.44,1.2033,248.5523
1978-06-21 19:59:00 UTC,2443681.332639,29.1983,-87.6383,0168,-1.17,-0.52,1.2804,246.0375
1978-06-21 20:59:00 UTC,2443681.374306,29.1983,-87.6383,0168,-1.44,-0.68,1.5925,244.7223
1978-06-21 21:59:00 UTC,2443681.415972,29.1983,-87.6383,0168,-1.64,-0.59,1.7429,250.2135
1978-06-21 22:59:00 UTC,2443681.457639,29.1983,-87.6383,0168,-1.62,-0.33,1.6533,258.4862
1978-06-21 23:59:00 UTC,2443681.499306,29.1983,-87.6383,0168,-1.52,-0.24,1.5388,261.0274
1978-06-22 00:59:00 UTC,2443681.540972,29.1983,-87.6383,0168,-1.46,-0.23,1.4780,261.0475
1978-06-22 01:59:00 UTC,2443681.582639,29.1983,-87.6383,0168,-1.63,-0.29,1.6556,259.9118
1978-06-22 02:59:00 UTC,2443681.624306,29.1983,-87.6383,0168,-1.90,-0.23,1.9139,263.0978
1978-06-22 03:59:00 UTC,2443681.665972,29.1983,-87.6383,0168,-1.98,-0.21,1.9911,263.9458
1978-06-22 04:59:00 UTC,2443681.707639,29.1983,-87.6383,0168,-1.86,-0.23,1.8742,262.9508
1978-06-22 05:59:00 UTC,2443681.749306,29.1983,-87.6383,0168,-1.66,-0.19,1.6708,263.4705
1978-06-22 06:59:00 UTC,2443681.790972,29.1983,-87.6383,0168,-1.53,-0.10,1.5333,266.2605
1978-06-22 07:59:00 UTC,2443681.832639,29.1983,-87.6383,0168,-1.30,0.14,1.3075,276.1466
1978-06-22 08:59:00 UTC,2443681.874306,29.1983,-87.6383,0168,-0.99,0.25,1.0211,284.1723
1978-06-22 09:59:00 UTC,2443681.915972,29.1983,-87.6383,0168,-0.68,0.23,0.7178,288.6873
1978-06-22 10:59:00 UTC,2443681.957639,29.1983,-87.6383,0168,-0.41,0.13,0.4301,287.5924
1978-06-22 11:59:00 UTC,2443681.999306,29.1983,-87.6383,0168,-0.33,0.04,0.3324,276.9112
1978-06-22 12:59:00 UTC,2443682.040972,29.1983,-87.6383,0168,-0.35,-0.04,0.3523,263.4802
1978-06-22 13:59:00 UTC,2443682.082639,29.1983,-87.6383,0168,-0.28,-0.12,0.3046,246.8014
1978-06-22 14:59:00 UTC,2443682.124306,29.1983,-87.6383,0168,-0.23,-0.30,0.3780,217.4762
1978-06-22 15:59:00 UTC,2443682.165972,29.1983,-87.6383,0168,-0.34,-0.48,0.5882,215.3112
1978-06-22 16:59:00 UTC,2443682.207639,29.1983,-87.6383,0168,-0.45,-0.57,0.7262,218.2902
1978-06-22 17:59:00 UTC,2443682.249306,29.1983,-87.6383,0168,-0.50,-0.65,0.8201,217.5686
1978-06-22 18:59:00 UTC,2443682.290972,29.1983,-87.6383,0168,-0.61,-0.82,1.0220,216.6457
1978-06-22 19:59:00 UTC,2443682.332639,29.1983,-87.6383,0168,-0.69,-0.93,1.1580,216.5730
1978-06-22 20:59:00 UTC,2443682.374306,29.1983,-87.6383,0168,-0.75,-0.85,1.1336,221.4237
1978-06-22 21:59:00 UTC,2443682.415972,29.1983,-87.6383,0168,-0.87,-0.84,1.2093,226.0051
1978-06-22 22:59:00 UTC,2443682.457639,29.1983,-87.6383,0168,-0.95,-0.83,1.2615,228.8568
1978-06-22 23:59:00 UTC,2443682.499306,29.1983,-87.6383,0168,-1.08,-0.66,1.2657,238.5704
1978-06-23 00:59:00 UTC,2443682.540972,29.1983,-87.6383,0168,-1.05,-0.50,1.1630,244.5367
1978-06-23 01:59:00 UTC,2443682.582639,29.1983,-87.6383,0168,-0.91,-0.45,1.0152,243.6874
1978-06-23 02:59:00 UTC,2443682.624306,29.1983,-87.6383,0168,-0.97,-0.28,1.0096,253.8987
1978-06-23 03:59:00 UTC,2443682.665972,29.1983,-87.6383,0168,-0.93,-0.08,0.9334,265.0834
1978-06-23 04:59:00 UTC,2443682.707639,29.1983,-87.6383,0168,-0.81,-0.05,0.8115,266.4677
1978-06-23 05:59:00 UTC,2443682.749306,29.1983,-87.6383,0168,-0.87,0.03,0.8705,271.9749
1978-06-23 06:59:00 UTC,2443682.790972,29.1983,-87.6383,0168,-0.76,0.17,0.7788,282.6086
1978-06-23 07:59:00 UTC,2443682.832639,29.1983,-87.6383,0168,-0.33,0.18,0.3759,298.6105
1978-06-23 08:59:00 UTC,2443682.874306,29.1983,-87.6383,0168,-0.08,0.14,0.1612,330.2551
1978-06-23 09:59:00 UTC,2443682.915972,29.1983,-87.6383,0168,-0.09,0.12,0.1500,323.1301
1978-06-23 10:59:00 UTC,2443682.957639,29.1983,-87.6383,0168,-0.11,0.13,0.1703,319.7636
1978-06-23 11:59:00 UTC,2443682.999306,29.1983,-87.6383,0168,-0.04,0.12,0.1265,341.5651
1978-06-23 12:59:00 UTC,2443683.040972,29.1983,-87.6383,0168,0.03,-0.04,0.0500,143.1301
1978-06-23 13:59:00 UTC,2443683.082639,29.1983,-87.6383,0168,-0.03,-0.17,0.1726,190.0080
1978-06-23 14:59:00 UTC,2443683.124306,29.1983,-87.6383,0168,-0.10,-0.12,0.1562,219.8056
1978-06-23 15:59:00 UTC,2443683.165972,29.1983,-87.6383,0168,-0.11,-0.11,0.1556,225.0000
1978-06-23 16:59:00 UTC,2443683.207639,29.1983,-87.6383,0168,-0.08,-0.13,0.1526,211.6075
1978-06-23 17:59:00 UTC,2443683.249306,29.1983,-87.6383,0168,-0.07,-0.14,0.1565,206.5650
1978-06-23 18:59:00 UTC,2443683.290972,29.1983,-87.6383,0168,-0.09,-0.12,0.1500,216.8699
1978-06-23 19:59:00 UTC,2443683.332639,29.1983,-87.6383,0168,-0.10,-0.11,0.1487,222.2737
1978-06-23 20:59:00 UTC,2443683.374306,29.1983,-87.6383,0168,-0.11,-0.10,0.1487,227.7263
1978-06-23 21:59:00 UTC,2443683.415972,29.1983,-87.6383,0168,-0.12,-0.10,0.1562,230.1944
1978-06-23 22:59:00 UTC,2443683.457639,29.1983,-87.6383,0168,-0.13,-0.08,0.1526,238.3925
1978-06-23 23:59:00 UTC,2443683.499306,29.1983,-87.6383,0168,-0.13,-0.08,0.1526,238.3925
1978-06-24 00:59:00 UTC,2443683.540972,29.1983,-87.6383,0168,-0.14,-0.06,0.1523,246.8014
1978-06-24 01:59:00 UTC,2443683.582639,29.1983,-87.6383,0168,-0.16,-0.01,0.1603,266.4237
1978-06-24 02:59:00 UTC,2443683.624306,29.1983,-87.6383,0168,-0.15,0.02,0.1513,277.5946
1978-06-24 03:59:00 UTC,2443683.665972,29.1983,-87.6383,0168,-0.11,0.10,0.1487,312.2737
1978-06-24 04:59:00 UTC,2443683.707639,29.1983,-87.6383,0168,-0.07,0.14,0.1565,333.4349
1978-06-24 05:59:00 UTC,2443683.749306,29.1983,-87.6383,0168,-0.05,0.14,0.1487,340.3462
1978-06-24 06:59:00 UTC,2443683.790972,29.1983,-87.6383,0168,-0.03,0.16,0.1628,349.3803
1978-06-24 07:59:00 UTC,2443683.832639,29.1983,-87.6383,0168,0.00,0.17,0.1700,0.0000
1978-06-24 08:59:00 UTC,2443683.874306,29.1983,-87.6383,0168,0.06,0.15,0.1616,21.8014
1978-06-24 09:59:00 UTC,2443683.915972,29.1983,-87.6383,0168,0.10,0.14,0.1720,35.5377
1978-06-24 10:59:00 UTC,2443683.957639,29.1983,-87.6383,0168,0.10,0.14,0.1720,35.5377
1978-06-24 11:59:00 UTC,2443683.999306,29.1983,-87.6383,0168,0.11,0.13,0.1703,40.2364
1978-06-24 12:59:00 UTC,2443684.040972,29.1983,-87.6383,0168,0.13,0.14,0.1910,42.8789
1978-06-24 13:59:00 UTC,2443684.082639,29.1983,-87.6383,0168,0.16,0.03,0.1628,79.3803
1978-06-24 14:59:00 UTC,2443684.124306,29.1983,-87.6383,0168,0.11,0.01,0.1105,84.8056
1978-06-24 15:59:00 UTC,2443684.165972,29.1983,-87.6383,0168,0.09,0.14,0.1664,32.7352
1978-06-24 16:59:00 UTC,2443684.207639,29.1983,-87.6383,0168,0.15,0.12,0.1921,51.3402
1978-06-24 17:59:00 UTC,2443684.249306,29.1983,-87.6383,0168,0.11,0.14,0.1780,38.1572
1978-06-24 18:59:00 UTC,2443684.290972,29.1983,-87.6383,0168,0.05,0.18,0.1868,15.5241
1978-06-24 19:59:00 UTC,2443684.332639,29.1983,-87.6383,0168,0.01,0.18,0.1803,3.1798
1978-06-24 20:59:00 UTC,2443684.374306,29.1983,-87.6383,0168,-0.01,0.19,0.1903,356.9872
1978-06-24 21:59:00 UTC,2443684.415972,29.1983,-87.6383,0168,0.01,0.19,0.1903,3.0128
1978-06-24 22:59:00 UTC,2443684.457639,29.1983,-87.6383,0168,0.06,0.17,0.1803,19.4400
1978-06-24 23:59:00 UTC,2443684.499306,29.1983,-87.6383,0168,0.10,0.16,0.1887,32.0054
1978-06-25 00:59:00 UTC,2443684.540972,29.1983,-87.6383,0168,0.08,0.18,0.1970,23.9625
1978-06-25 01:59:00 UTC,2443684.582639,29.1983,-87.6383,0168,0.08,0.18,0.1970,23.9625
1978-06-25 02:59:00 UTC,2443684.624306,29.1983,-87.6383,0168,0.08,0.19,0.2062,22.8337
1978-06-25 03:59:00 UTC,2443684.665972,29.1983,-87.6383,0168,0.08,0.20,0.2154,21.8014
1978-06-25 04:59:00 UTC,2443684.707639,29.1983,-87.6383,0168,0.07,0.34,0.3471,11.6336
1978-06-25 05:59:00 UTC,2443684.749306,29.1983,-87.6383,0168,0.09,0.40,0.4100,12.6804
1978-06-25 06:59:00 UTC,2443684.790972,29.1983,-87.6383,0168,0.07,0.20,0.2119,19.2900
1978-06-25 07:59:00 UTC,2443684.832639,29.1983,-87.6383,0168,0.06,0.14,0.1523,23.1986
1978-06-25 08:59:00 UTC,2443684.874306,29.1983,-87.6383,0168,0.09,0.17,0.1924,27.8973
1978-06-25 09:59:00 UTC,2443684.915972,29.1983,-87.6383,0168,0.08,0.16,0.1789,26.5651
1978-06-25 10:59:00 UTC,2443684.957639,29.1983,-87.6383,0168,0.02,0.19,0.1910,6.0090
1978-06-25 11:59:00 UTC,2443684.999306,29.1983,-87.6383,0168,0.02,0.19,0.1910,6.0090
1978-06-25 12:59:00 UTC,2443685.040972,29.1983,-87.6383,0168,0.06,0.20,0.2088,16.6992
1978-06-25 13:59:00 UTC,2443685.082639,29.1983,-87.6383,0168,0.07,0.27,0.2789,14.5345
1978-06-25 14:59:00 UTC,2443685.124306,29.1983,-87.6383,0168,0.08,0.29,0.3008,15.4222
1978-06-25 15:59:00 UTC,2443685.165972,29.1983,-87.6383,0168,0.07,0.20,0.2119,19.2900
1978-06-25 16:59:00 UTC,2443685.207639,29.1983,-87.6383,0168,0.04,0.21,0.2138,10.7843
1978-06-25 17:59:00 UTC,2443685.249306,29.1983,-87.6383,0168,0.01,0.26,0.2602,2.2026
1978-06-25 18:59:00 UTC,2443685.290972,29.1983,-87.6383,0168,0.04,0.37,0.3722,6.1702
1978-06-25 19:59:00 UTC,2443685.332639,29.1983,-87.6383,0168,0.12,0.50,0.5142,13.4957
1978-06-25 20:59:00 UTC,2443685.374306,29.1983,-87.6383,0168,0.16,0.44,0.4682,19.9831
1978-06-25 21:59:00 UTC,2443685.415972,29.1983,-87.6383,0168,0.24,0.39,0.4579,31.6075
1978-06-25 22:59:00 UTC,2443685.457639,29.1983,-87.6383,0168,0.33,0.51,0.6075,32.9052
1978-06-25 23:59:00 UTC,2443685.499306,29.1983,-87.6383,0168,0.27,0.58,0.6398,24.9628
1978-06-26 00:59:00 UTC,2443685.540972,29.1983,-87.6383,0168,0.21,0.47,0.5148,24.0755
1978-06-26 01:59:00 UTC,2443685.582639,29.1983,-87.6383,0168,0.25,0.47,0.5324,28.0092
1978-06-26 02:59:00 UTC,2443685.624306,29.1983,-87.6383,0168,0.27,0.60,0.6580,24.2277
1978-06-26 03:59:00 UTC,2443685.665972,29.1983,-87.6383,0168,0.20,0.44,0.4833,24.4440
1978-06-26 04:59:00 UTC,2443685.707639,29.1983,-87.6383,0168,0.13,0.31,0.3362,22.7510
1978-06-26 05:59:00 UTC,2443685.749306,29.1983,-87.6383,0168,0.11,0.35,0.3669,17.4472
1978-06-26 06:59:00 UTC,2443685.790972,29.1983,-87.6383,0168,0.07,0.40,0.4061,9.9262
1978-06-26 07:59:00 UTC,2443685.832639,29.1983,-87.6383,0168,0.05,0.53,0.5324,5.3893
1978-06-26 08:59:00 UTC,2443685.874306,29.1983,-87.6383,0168,0.02,0.65,0.6503,1.7624
1978-06-26 09:59:00 UTC,2443685.915972,29.1983,-87.6383,0168,0.01,0.73,0.7301,0.7848
1978-06-26 10:59:00 UTC,2443685.957639,29.1983,-87.6383,0168,0.05,0.79,0.7916,3.6215
1978-06-26 11:59:00 UTC,2443685.999306,29.1983,-87.6383,0168,0.06,0.78,0.7823,4.3987
1978-06-26 12:59:00 UTC,2443686.040972,29.1983,-87.6383,0168,0.15,0.65,0.6671,12.9946
1978-06-26 13:59:00 UTC,2443686.082639,29.1983,-87.6383,0168,0.15,0.66,0.6768,12.8043
1978-06-26 14:59:00 UTC,2443686.124306,29.1983,-87.6383,0168,0.19,0.73,0.7543,14.5889
1978-06-26 15:59:00 UTC,2443686.165972,29.1983,-87.6383,0168,0.44,0.73,0.8523,31.0790
1978-06-26 16:59:00 UTC,2443686.207639,29.1983,-87.6383,0168,0.48,0.91,1.0288,27.8104
1978-06-26 17:59:00 UTC,2443686.249306,29.1983,-87.6383,0168,0.46,1.03,1.1281,24.0656
1978-06-26 18:59:00 UTC,2443686.290972,29.1983,-87.6383,0168,0.66,0.90,1.1161,36.2538
1978-06-26 19:59:00 UTC,2443686.332639,29.1983,-87.6383,0168,0.93,0.99,1.3583,43.2101
1978-06-26 20:59:00 UTC,2443686.374306,29.1983,-87.6383,0168,1.07,1.02,1.4783,46.3704
1978-06-26 21:59:00 UTC,2443686.415972,29.1983,-87.6383,0168,0.97,0.76,1.2323,51.9211
1978-06-26 22:59:00 UTC,2443686.457639,29.1983,-87.6383,0168,0.83,0.52,0.9794,57.9326
1978-06-26 23:59:00 UTC,2443686.499306,29.1983,-87.6383,0168,0.72,0.34,0.7962,64.7223
1978-06-27 00:59:00 UTC,2443686.540972,29.1983,-87.6383,0168,0.62,0.31,0.6932,63.4349
1978-06-27 01:59:00 UTC,2443686.582639,29.1983,-87.6383,0168,0.64,0.32,0.7155,63.4349
1978-06-27 02:59:00 UTC,2443686.624306,29.1983,-87.6383,0168,0.64,0.29,0.7026,65.6235
1978-06-27 03:59:00 UTC,2443686.665972,29.1983,-87.6383,0168,0.54,0.23,0.5869,66.9296
1978-06-27 04:59:00 UTC,2443686.707639,29.1983,-87.6383,0168,0.32,0.16,0.3578,63.4349
1978-06-27 05:59:00 UTC,2443686.749306,29.1983,-87.6383,0168,0.17,0.18,0.2476,43.3634
1978-06-27 06:59:00 UTC,2443686.790972,29.1983,-87.6383,0168,0.14,0.18,0.2280,37.8750
1978-06-27 07:59:00 UTC,2443686.832639,29.1983,-87.6383,0168,0.07,0.26,0.2693,15.0685
1978-06-27 08:59:00 UTC,2443686.874306,29.1983,-87.6383,0168,0.03,0.49,0.4909,3.5035
1978-06-27 09:59:00 UTC,2443686.915972,29.1983,-87.6383,0168,0.00,0.65,0.6500,0.0000
1978-06-27 10:59:00 UTC,2443686.957639,29.1983,-87.6383,0168,0.02,0.93,0.9302,1.2320
1978-06-27 11:59:00 UTC,2443686.999306,29.1983,-87.6383,0168,0.15,1.12,1.1300,7.6281
1978-06-27 12:59:00 UTC,2443687.040972,29.1983,-87.6383,0168,0.34,1.21,1.2569,15.6949
1978-06-27 13:59:00 UTC,2443687.082639,29.1983,-87.6383,0168,0.52,1.42,1.5122,20.1126
1978-06-27 14:59:00 UTC,2443687.124306,29.1983,-87.6383,0168,0.63,1.35,1.4898,25.0169
1978-06-27 15:59:00 UTC,2443687.165972,29.1983,-87.6383,0168,0.63,1.21,1.3642,27.5042
1978-06-27 16:59:00 UTC,2443687.207639,29.1983,-87.6383,0168,0.71,1.25,1.4376,29.5966
1978-06-27 17:59:00 UTC,2443687.249306,29.1983,-87.6383,0168,0.89,1.27,1.5508,35.0223
1978-06-27 18:59:00 UTC,2443687.290972,29.1983,-87.6383,0168,1.00,1.25,1.6008,38.6598
1978-06-27 19:59:00 UTC,2443687.332639,29.1983,-87.6383,0168,1.10,1.29,1.6953,40.4547
1978-06-27 20:59:00 UTC,2443687.374306,29.1983,-87.6383,0168,1.27,1.16,1.7200,47.5919
1978-06-27 21:59:00 UTC,2443687.415972,29.1983,-87.6383,0168,1.43,0.89,1.6843,58.1028
1978-06-27 22:59:00 UTC,2443687.457639,29.1983,-87.6383,0168,1.55,0.90,1.7923,59.8586
1978-06-27 23:59:00 UTC,2443687.499306,29.1983,-87.6383,0168,1.53,0.65,1.6623,66.9824
1978-06-28 00:59:00 UTC,2443687.540972,29.1983,-87.6383,0168,1.43,0.27,1.4553,79.3078
1978-06-28 01:59:00 UTC,2443687.582639,29.1983,-87.6383,0168,1.31,0.14,1.3175,83.8999
1978-06-28 02:59:00 UTC,2443687.624306,29.1983,-87.6383,0168,0.99,-0.02,0.9902,91.1573
1978-06-28 03:59:00 UTC,2443687.665972,29.1983,-87.6383,0168,0.73,-0.05,0.7317,93.9182
1978-06-28 04:59:00 UTC,2443687.707639,29.1983,-87.6383,0168,0.54,0.02,0.5404,87.8789
1978-06-28 05:59:00 UTC,2443687.749306,29.1983,-87.6383,0168,0.27,0.07,0.2789,75.4655
1978-06-28 06:59:00 UTC,2443687.790972,29.1983,-87.6383,0168,0.11,0.12,0.1628,42.5104
1978-06-28 07:59:00 UTC,2443687.832639,29.1983,-87.6383,0168,0.10,0.19,0.2147,27.7585
1978-06-28 08:59:00 UTC,2443687.874306,29.1983,-87.6383,0168,0.08,0.44,0.4472,10.3048
1978-06-28 09:59:00 UTC,2443687.915972,29.1983,-87.6383,0168,0.07,0.76,0.7632,5.2624
1978-06-28 10:59:00 UTC,2443687.957639,29.1983,-87.6383,0168,0.21,1.06,1.0806,11.2059
1978-06-28 11:59:00 UTC,2443687.999306,29.1983,-87.6383,0168,0.34,1.45,1.4893,13.1965
1978-06-28 12:59:00 UTC,2443688.040972,29.1983,-87.6383,0168,0.43,1.63,1.6858,14.7782
1978-06-28 13:59:00 UTC,2443688.082639,29.1983,-87.6383,0168,0.43,1.52,1.5797,15.7959
1978-06-28 14:59:00 UTC,2443688.124306,29.1983,-87.6383,0168,0.62,1.36,1.4947,24.5074
1978-06-28 15:59:00 UTC,2443688.165972,29.1983,-87.6383,0168,0.77,1.37,1.5716,29.3379
1978-06-28 16:59:00 UTC,2443688.207639,29.1983,-87.6383,0168,0.75,1.48,1.6592,26.8739
1978-06-28 17:59:00 UTC,2443688.249306,29.1983,-87.6383,0168,0.93,1.33,1.6229,34.9631
1978-06-28 18:59:00 UTC,2443688.290972,29.1983,-87.6383,0168,1.05,1.14,1.5499,42.6467
1978-06-28 19:59:00 UTC,2443688.332639,29.1983,-87.6383,0168,1.24,1.12,1.6709,47.9108
1978-06-28 20:59:00 UTC,2443688.374306,29.1983,-87.6383,0168,1.47,1.11,1.8420,52.9435
1978-06-28 21:59:00 UTC,2443688.415972,29.1983,-87.6383,0168,1.53,1.18,1.9322,52.3591
1978-06-28 22:59:00 UTC,2443688.457639,29.1983,-87.6383,0168,1.59,1.10,1.9334,55.3236
1978-06-28 23:59:00 UTC,2443688.499306,29.1983,-87.6383,0168,1.51,0.92,1.7682,58.6472
1978-06-29 00:59:00 UTC,2443688.540972,29.1983,-87.6383,0168,1.50,0.70,1.6553,64.9831
1978-06-29 01:59:00 UTC,2443688.582639,29.1983,-87.6383,0168,1.51,0.50,1.5906,71.6790
1978-06-29 02:59:00 UTC,2443688.624306,29.1983,-87.6383,0168,1.59,0.40,1.6395,75.8790
1978-06-29 03:59:00 UTC,2443688.665972,29.1983,-87.6383,0168,1.63,0.32,1.6611,78.8930
1978-06-29 04:59:00 UTC,2443688.707639,29.1983,-87.6383,0168,1.53,0.35,1.5695,77.1148
1978-06-29 05:59:00 UTC,2443688.749306,29.1983,-87.6383,0168,1.39,0.32,1.4264,77.0355
1978-06-29 06:59:00 UTC,2443688.790972,29.1983,-87.6383,0168,1.18,0.23,1.2022,78.9705